SCP
0 0 0 0 0 0 0 0 0 0 0 0 0 0 -0 -0 0 0 0 0 0 0 0 1 1 1 1 1 1 1 1 1 0 0 0 0 0 0 0 0 0 0 -0 -0 -0 -0 0 0 0
0 0 0 0 0 0 0 0 0 0 0 0 0 -0 0 0 -0 -0 -0 -0 0 0 0 1 1 1 1 1 1 1 1 1 1 0 0 0 0 0 0 0 0 0 -0 -0 -0 -0 0 0 0
0 0 0 0 0 0 0 0 0 0 0 0 0 0 0 0 0 -0 -0 -0 0 0 0 0 1 1 2 1 1 1 1 1 1 1 0 0 0 0 0 0 0 0 0 -0 -0 0 0 0 0
0 0 0 0 0 0 0 0 0 0 0 0 0 0 0 0 0 -0 -0 0 0 0 0 0 1 1 1 1 1 1 1 1 1 1 1 0 0 0 0 0 0 0 0 0 0 0 0 0 0
0 0 0 0 0 0 0 0 0 0 0 0 0 0 0 0 0 0 0 0 0 0 0 0 0 1 1 1 1 1 1 1 0 0 1 1 1 0 0 0 0 0 0 0 0 0 0 0 0
0 0 0 0 0 0 0 0 0 0 0 0 0 0 0 0 0 0 0 1 0 0 0 0 0 0 0 1 1 1 1 1 1 1 1 1 1 1 0 0 0 1 0 1 0 1 0 0 0
0 0 0 0 0 0 0 0 0 0 0 0 0 0 0 0 0 0 0 0 0 0 -0 -0 0 0 0 0 1 1 1 1 1 1 1 1 1 1 1 1 1 1 1 1 1 1 0 0 0
0 0 0 0 0 0 0 0 0 0 0 0 0 0 0 0 0 0 0 0 1 1 0 0 0 0 1 1 1 1 1 1 1 1 1 1 1 1 1 1 1 1 1 1 1 1 1 0 0
0 0 0 0 0 0 0 0 0 0 0 0 0 0 0 0 0 0 0 0 0 1 1 1 1 1 1 1 1 1 1 1 1 2 1 1 2 1 1 1 1 1 1 1 1 1 1 1 1
0 0 0 0 0 0 0 0 0 0 0 0 0 0 0 0 0 0 0 0 0 0 0 1 1 1 1 1 1 1 1 1 2 2 3 2 2 2 2 1 1 1 1 1 1 1 1 1 1
0 0 0 0 0 0 0 0 0 0 0 0 0 0 0 0 0 0 0 0 0 0 0 0 1 1 1 2 2 2 2 2 2 2 2 2 3 3 2 2 2 2 1 1 1 2 1 1 2
0 0 0 0 0 0 0 0 0 0 0 0 0 0 0 0 0 0 0 0 0 0 0 0 1 2 2 2 3 2 2 2 2 2 2 2 3 3 3 2 2 2 2 2 2 2 2 2 1
0 0 0 0 0 0 0 0 0 0 0 0 0 0 0 0 0 0 0 0 0 0 0 0 1 3 4 4 3 3 3 2 2 2 2 3 3 3 3 2 2 2 1 1 2 2 1 1 2
0 0 0 0 0 0 0 0 0 0 0 0 0 0 0 0 0 0 0 0 0 0 0 0 0 0 4 4 4 3 2 1 2 1 1 1 2 2 2 3 3 3 2 2 2 1 1 1 2
0 0 0 0 0 0 0 0 0 0 0 0 0 0 0 0 0 0 0 0 0 0 0 0 0 0 0 0 0 0 0 0 0 0 0 0 0 0 1 2 2 3 2 2 2 1 2 1 2
0 0 0 0 0 0 0 0 0 0 0 0 0 0 0 0 0 0 0 0 0 0 0 0 0 0 0 0 0 0 0 0 0 0 0 0 0 0 0 0 0 0 0 2 2 2 2 1 2
0 0 0 0 0 0 0 0 0 0 0 0 0 0 0 0 0 0 0 0 0 0 0 0 0 0 0 0 0 0 0 0 0 0 0 0 0 0 0 0 0 0 0 0 2 2 2 2 2
0 0 0 0 0 0 0 0 0 0 0 0 0 0 0 0 0 0 0 0 0 0 0 0 0 0 0 0 0 0 0 0 0 0 0 0 0 0 0 0 0 0 0 0 0 0 2 2 2
0 0 0 0 0 0 0 0 0 0 0 0 0 0 0 0 0 0 0 0 0 0 0 0 0 0 0 0 0 0 0 0 0 0 0 0 0 0 0 0 0 0 0 0 0 0 0 1 2
0 0 0 0 0 0 0 0 0 0 0 0 0 0 0 0 0 0 0 0 0 0 0 0 0 0 0 0 0 0 0 0 0 0 0 0 0 0 0 0 0 0 0 0 0 0 0 1 1
0 0 0 0 0 0 0 0 0 0 0 0 0 0 0 0 0 0 0 0 0 0 0 0 0 0 0 0 0 0 0 0 0 0 0 0 0 0 0 0 0 0 0 0 0 0 0 0 1
0 0 0 0 0 0 0 0 0 0 0 0 0 0 0 0 0 0 0 0 0 0 0 0 0 0 0 0 0 0 0 0 0 0 0 0 0 0 0 0 0 0 0 0 0 0 0 0 0
0 0 0 0 0 0 0 0 0 0 0 0 0 0 0 0 0 0 0 0 0 0 0 0 0 0 0 0 0 0 0 0 0 0 0 0 0 0 0 0 0 0 0 0 0 0 0 0 0
0 0 0 0 0 0 0 0 0 0 0 0 0 0 0 0 0 0 0 0 0 0 0 0 0 0 0 0 0 0 0 0 0 0 0 0 0 0 0 0 0 0 0 0 0 0 0 0 0
0 0 0 0 0 0 0 0 0 0 0 0 0 0 0 0 0 0 0 0 0 0 0 0 0 0 0 0 0 0 0 0 -0 -0 -0 0 0 0 0 0 0 0 0 0 0 0 0 0 0
0 0 0 0 0 0 0 0 0 0 0 0 0 0 0 0 0 -0 -0 0 0 -0 0 0 0 0 0 0 0 0 0 0 -0 -0 0 0 0 0 0 0 0 0 0 0 0 0 0 0 0
0 0 0 0 0 0 0 0 0 0 0 0 0 0 0 0 0 0 0 0 0 0 0 0 0 0 0 0 0 0 0 0 0 0 0 0 0 0 0 0 0 0 0 0 0 0 0 0 0
0 0 0 0 0 0 0 0 0 0 0 0 0 0 0 0 0 0 0 0 0 0 0 0 0 0 0 0 0 0 0 0 0 0 0 0 0 0 0 0 0 0 0 0 0 0 0 0 0
0 0 0 0 0 0 0 0 0 0 0 0 0 0 0 0 0 0 0 0 0 0 0 0 0 0 0 0 0 0 0 0 0 0 0 0 0 0 0 0 0 0 0 0 0 0 0 0 0
0 0 0 0 0 0 0 0 0 0 0 0 0 0 0 0 0 0 0 0 0 0 0 0 0 0 0 0 0 0 0 0 0 0 0 0 0 0 0 0 0 0 0 0 0 0 0 0 0
Wind_Speed_500mb
6 3 6 3 3 2 4 6 4 17 9 8 22 9 6 4 1 3 13 13 11 14 29 38 40 40 40 38 35 31 29 29 27 25 26 22 17 19 23 24 23 24 24 25 25 25 23 21 18
4 3 3 4 2 2 5 2 9 12 21 25 10 9 3 4 3 6 15 12 12 12 18 30 39 43 43 41 38 34 31 30 30 27 26 24 18 17 19 22 23 24 25 25 26 26 24 21 17
5 3 2 5 5 3 7 4 8 13 16 28 7 4 7 13 10 12 7 13 12 15 17 25 35 41 43 41 38 36 34 32 31 30 27 26 25 21 19 21 23 25 26 27 27 26 23 21 19
4 3 9 1 3 2 2 6 9 17 18 42 22 5 5 16 7 3 9 10 9 9 12 19 29 37 40 40 39 38 35 33 32 32 32 31 30 28 24 22 22 25 27 27 27 26 24 22 20
1 4 2 2 2 3 6 5 7 19 12 24 18 16 7 24 6 4 6 4 2 2 7 11 16 27 36 38 38 38 38 37 35 34 35 35 34 33 31 27 25 25 26 27 27 27 26 24 22
4 5 1 7 4 3 10 10 5 17 18 24 14 9 13 24 14 7 3 1 1 2 4 5 7 13 25 35 38 39 40 40 38 37 37 39 39 38 35 33 30 28 28 28 29 28 28 26 24
6 5 4 3 3 4 6 4 21 16 18 18 24 5 9 38 21 9 10 9 9 7 7 8 11 13 20 27 33 40 44 43 42 40 40 41 42 42 40 39 37 34 32 30 30 30 29 28 26
7 4 7 7 5 3 4 6 12 15 3 20 20 7 11 42 35 15 19 23 22 20 17 19 20 22 24 28 32 37 41 45 45 45 44 43 44 46 47 45 44 41 38 35 34 32 31 29 27
7 4 6 6 10 4 10 11 14 18 11 21 1 14 31 36 30 21 21 22 28 32 31 32 31 30 30 31 30 33 37 42 47 47 47 47 49 50 52 52 50 46 44 41 39 37 34 32 31
3 5 10 2 1 5 9 10 16 15 35 6 10 32 30 31 30 29 33 36 33 29 34 41 41 38 35 34 33 32 34 38 44 50 49 50 52 54 56 57 55 53 50 47 45 42 39 39 39
2 6 5 2 2 12 8 11 7 16 10 19 30 37 30 24 20 22 24 30 32 32 36 36 41 46 43 40 35 36 35 36 40 45 51 52 54 56 58 60 60 61 58 55 53 51 49 47 46
5 8 4 8 8 11 12 12 16 27 26 23 31 24 35 39 41 44 46 44 41 38 32 37 40 48 49 45 44 41 43 37 36 40 46 50 54 56 57 59 62 64 64 63 59 58 57 55 52
8 4 7 14 23 23 16 20 15 25 22 7 14 27 44 50 52 54 54 52 51 47 40 30 37 48 55 49 44 44 46 37 34 33 38 45 47 49 51 53 56 60 64 66 65 63 61 61 59
1 8 19 14 27 15 9 7 7 5 16 25 37 46 51 60 50 57 52 51 48 46 41 35 36 43 53 50 48 48 49 43 37 35 31 37 46 46 45 46 49 52 56 58 62 66 66 67 65
6 12 14 7 3 2 7 2 10 3 32 50 48 45 50 37 47 40 38 36 33 32 29 26 32 43 51 53 57 55 57 55 44 41 34 35 41 43 49 53 49 49 51 52 54 56 61 66 69
3 3 6 5 14 5 8 5 10 17 52 59 61 62 50 32 31 29 24 21 17 16 14 14 21 26 36 46 51 52 53 50 45 42 38 39 42 45 50 54 57 60 58 57 58 60 60 64 67
5 5 1 11 8 9 20 9 23 56 44 44 51 51 36 24 28 26 23 17 9 2 7 10 14 22 28 31 31 30 32 33 35 33 31 33 37 41 45 50 55 61 59 57 71 63 69 66 69
6 5 5 6 7 17 26 21 21 39 31 27 32 33 22 26 33 29 23 18 13 10 6 3 2 13 17 20 22 20 20 23 26 27 31 35 38 42 44 46 49 47 47 56 61 55 52 65 78
7 3 13 11 18 12 10 24 26 19 31 36 39 31 30 31 27 27 28 23 19 15 12 9 10 6 6 17 20 18 17 17 19 23 26 30 35 39 43 46 48 51 52 51 48 48 50 53 64
13 14 24 14 10 11 16 31 10 23 21 25 27 30 26 25 26 26 26 25 26 24 24 21 21 17 18 13 7 11 16 17 19 19 21 24 27 31 37 41 43 47 49 50 52 55 54 50 42
9 20 14 17 13 8 12 2 8 15 22 25 31 29 28 26 23 22 26 32 28 27 26 26 26 27 26 26 24 14 5 10 17 23 22 24 25 28 31 35 39 41 43 45 47 52 58 58 43
10 20 18 13 10 8 9 10 15 5 17 22 21 21 19 18 18 22 25 28 34 35 33 29 27 26 24 24 26 31 35 24 31 30 25 23 26 28 28 32 36 39 40 40 42 44 51 56 59
8 11 10 3 5 8 7 10 9 3 3 8 6 11 13 17 22 26 28 31 29 33 40 38 39 38 33 30 32 29 41 41 38 34 32 29 26 27 30 33 33 34 34 36 37 37 40 49 58
12 8 7 7 0 12 13 17 11 11 8 9 10 8 8 9 12 16 18 18 19 16 16 31 39 36 37 33 26 34 35 43 41 36 37 36 35 33 32 29 29 32 31 30 33 34 37 39 45
12 10 5 5 6 10 6 10 20 20 15 13 15 12 4 2 7 13 16 18 20 23 25 18 19 33 40 38 32 17 22 33 43 44 45 41 40 39 37 33 30 30 33 33 34 34 37 38 46
18 20 10 11 7 1 1 13 4 13 18 16 16 15 9 6 7 14 21 25 30 33 31 31 24 16 17 20 26 33 32 33 35 39 40 40 42 42 40 38 37 34 35 34 37 36 38 40 46
11 13 17 11 5 7 10 9 9 21 19 23 22 20 13 4 3 10 16 20 24 27 31 31 31 30 30 24 24 24 27 27 27 28 32 34 35 38 39 40 37 38 37 36 35 35 36 46 45
9 20 6 7 9 11 11 14 15 28 26 26 28 27 19 11 3 10 16 19 22 26 25 25 27 27 26 27 28 27 26 27 28 27 27 28 31 33 34 36 38 37 36 35 35 33 34 41 46
11 10 5 5 5 8 12 12 10 34 38 38 36 30 25 16 6 10 16 20 20 20 21 23 26 26 26 25 24 24 25 28 28 30 30 30 30 31 32 33 34 36 36 34 28 31 34 35 35
15 19 24 9 9 6 4 21 2 23 34 42 37 33 25 15 6 6 13 17 18 19 20 22 23 24 25 25 27 30 33 35 39 40 39 36 34 32 32 34 37 39 39 39 35 29 28 28 24
Wind_Direction_500mb
3 356 347 355 232 52 84 104 286 340 318 283 303 231 248 276 174 42 137 136 130 125 180 192 195 199 199 200 199 196 189 182 182 177 171 165 156 147 159 162 165 168 172 175 176 177 179 178 176
360 299 340 70 134 163 101 264 349 335 323 325 307 240 286 20 57 93 131 131 133 149 178 201 202 202 203 204 205 204 201 195 190 189 183 179 177 168 163 170 175 177 180 182 185 187 189 190 192
334 331 307 79 106 176 116 209 316 331 2 19 6 354 6 354 17 119 131 140 128 140 167 200 210 210 209 209 210 211 210 207 202 199 198 196 190 190 182 178 181 184 187 189 192 194 193 197 202
310 315 47 226 201 135 192 313 323 8 4 11 3 54 12 18 343 155 163 158 143 133 157 192 211 219 218 217 217 219 219 217 215 212 209 208 205 200 199 196 191 192 194 195 196 198 198 202 205
221 50 27 9 167 231 242 284 15 18 24 358 15 340 38 7 2 275 159 149 106 126 145 162 193 215 223 224 224 225 227 226 224 222 219 217 215 211 207 208 207 204 203 201 202 204 204 207 209
99 78 189 257 219 285 301 338 72 25 359 5 12 359 43 10 19 54 90 76 150 147 173 175 187 208 219 226 230 232 232 230 231 228 226 224 222 219 218 217 217 217 214 211 210 210 210 213 213
127 125 216 268 243 254 188 76 39 7 360 21 353 348 357 22 359 331 320 309 284 245 218 222 224 222 226 230 232 234 234 234 234 233 232 228 226 224 223 223 223 223 222 221 220 218 218 219 218
119 91 163 221 160 236 96 45 21 26 21 344 340 19 344 343 349 321 321 311 299 287 271 270 240 237 234 232 234 235 236 236 235 236 235 233 231 228 226 226 226 225 227 226 228 228 225 224 225
119 115 226 237 169 101 53 29 357 329 270 316 212 347 326 326 331 324 312 315 307 295 284 285 265 250 242 241 241 241 242 237 234 233 234 233 232 229 229 229 228 227 228 230 232 232 231 230 229
86 178 213 309 80 68 20 26 321 324 306 318 287 322 326 321 319 315 313 311 307 303 301 285 273 260 246 242 244 244 245 245 243 239 235 234 234 232 232 231 230 230 230 231 232 235 234 232 233
135 227 234 140 114 12 342 350 337 287 293 306 318 325 338 352 354 340 326 325 321 302 289 288 272 263 252 243 242 244 247 249 248 246 242 238 236 235 233 233 231 231 230 231 231 232 233 235 237
259 254 262 324 349 335 313 296 288 269 276 302 317 347 344 339 335 331 326 319 317 305 297 276 268 259 251 243 238 237 245 249 254 254 248 244 241 239 238 236 236 234 235 234 235 236 237 239 241
223 243 297 302 310 294 282 263 260 271 296 359 347 334 337 338 333 327 322 315 311 311 304 293 262 259 247 244 246 252 248 248 251 256 249 245 247 247 242 242 241 239 239 238 239 241 243 243 243
76 304 302 300 291 291 268 260 199 130 7 344 337 333 337 337 335 327 321 318 313 313 308 302 267 248 237 242 254 257 263 251 253 257 246 243 248 247 245 244 243 244 244 246 244 244 248 249 248
321 312 315 309 73 61 282 34 127 203 340 330 330 332 336 343 336 338 333 326 310 302 296 278 266 247 238 232 240 250 253 257 255 254 243 243 245 252 257 257 250 247 249 252 249 248 249 253 253
360 95 308 34 348 19 358 285 307 347 332 329 326 327 336 347 359 359 357 346 329 295 262 244 237 233 225 227 231 234 243 247 248 251 251 251 251 253 253 256 262 260 255 251 251 250 251 252 255
28 258 197 314 61 25 24 299 318 319 321 314 318 327 349 2 13 21 22 23 15 302 218 205 202 213 213 211 210 219 228 232 233 235 243 252 257 258 260 259 256 256 255 255 251 258 254 255 255
202 212 176 241 306 341 311 288 288 298 327 345 346 354 43 29 28 29 32 33 32 44 55 73 197 215 216 212 209 214 224 234 236 241 246 252 258 262 265 265 267 266 263 254 247 246 249 253 259
143 223 274 275 272 299 276 302 293 340 45 24 20 61 53 53 44 36 32 31 35 31 25 27 20 354 256 226 219 217 228 240 247 251 254 257 261 263 263 263 264 263 262 262 258 259 256 253 252
232 271 270 289 269 287 301 305 55 62 69 55 56 55 51 45 39 32 27 23 22 26 31 23 21 24 14 351 282 241 240 249 262 267 268 267 266 267 268 268 265 263 261 257 256 255 255 253 251
218 241 256 268 316 267 320 113 180 84 80 65 59 59 54 49 40 30 29 29 29 24 20 25 27 32 38 30 2 338 263 267 279 275 277 275 274 273 272 273 272 271 268 261 254 250 248 247 243
236 222 241 263 307 295 0 296 206 157 64 66 66 72 59 45 37 33 29 28 29 30 30 15 21 7 11 14 17 2 344 352 331 321 311 306 294 289 279 275 275 277 277 273 265 255 250 246 244
240 167 206 226 237 306 223 258 144 149 114 98 58 82 83 72 53 43 32 19 13 12 12 17 12 15 7 359 335 341 344 330 325 326 325 319 313 300 292 284 281 280 280 277 273 267 258 251 247
135 104 61 57 359 266 230 222 171 190 199 195 178 164 123 69 44 44 51 52 46 30 359 353 356 354 356 349 326 322 325 315 318 326 324 325 319 313 306 300 286 281 282 278 273 268 268 264 260
168 149 278 249 191 256 102 219 275 181 208 212 181 159 161 72 44 37 35 30 22 20 21 9 345 341 339 340 343 343 308 309 325 334 332 328 325 321 317 314 304 288 284 283 276 271 268 268 268
188 208 208 241 210 227 190 239 273 170 171 158 160 174 155 112 51 28 15 7 3 356 1 360 355 353 347 345 332 323 335 339 336 333 334 334 332 331 328 323 314 305 295 290 281 277 275 273 268
171 206 232 265 182 248 230 248 214 167 180 175 193 192 170 169 349 355 356 359 358 353 352 352 350 355 357 0 356 347 343 347 350 340 341 340 340 339 338 337 332 321 313 306 298 291 282 274 272
193 148 130 176 235 234 229 253 245 193 190 194 202 192 181 200 263 341 356 2 357 354 357 356 357 0 1 3 3 2 4 6 7 4 2 359 356 353 350 349 346 340 331 324 316 305 294 288 274
165 200 166 191 218 254 271 253 206 200 192 198 200 189 189 192 231 340 353 354 353 353 358 4 8 9 10 17 18 16 15 18 18 19 17 17 14 11 8 5 3 358 353 345 339 328 314 303 289
199 197 193 213 208 223 326 267 245 205 191 194 188 178 183 187 216 344 353 356 3 10 15 16 17 16 20 22 30 35 39 40 39 34 30 27 28 26 26 28 25 18 16 12 4 355 345 336 320
Wind_Speed_850mb
6 3 6 3 3 2 4 6 4 17 9 8 22 9 6 4 1 3 13 13 11 14 29 38 40 40 40 38 35 31 29 29 27 25 26 22 17 19 23 24 23 24 24 25 25 25 23 21 18
4 3 3 4 2 2 5 2 9 12 21 25 10 9 3 4 3 6 15 12 12 12 18 30 39 43 43 41 38 34 31 30 30 27 26 24 18 17 19 22 23 24 25 25 26 26 24 21 17
5 3 2 5 5 3 7 4 8 13 16 28 7 4 7 13 10 12 7 13 12 15 17 25 35 41 43 41 38 36 34 32 31 30 27 26 25 21 19 21 23 25 26 27 27 26 23 21 19
4 3 9 1 3 2 2 6 9 17 18 42 22 5 5 16 7 3 9 10 9 9 12 19 29 37 40 40 39 38 35 33 32 32 32 31 30 28 24 22 22 25 27 27 27 26 24 22 20
1 4 2 2 2 3 6 5 7 19 12 24 18 16 7 24 6 4 6 4 2 2 7 11 16 27 36 38 38 38 38 37 35 34 35 35 34 33 31 27 25 25 26 27 27 27 26 24 22
4 5 1 7 4 3 10 10 5 17 18 24 14 9 13 24 14 7 3 1 1 2 4 5 7 13 25 35 38 39 40 40 38 37 37 39 39 38 35 33 30 28 28 28 29 28 28 26 24
6 5 4 3 3 4 6 4 21 16 18 18 24 5 9 38 21 9 10 9 9 7 7 8 11 13 20 27 33 40 44 43 42 40 40 41 42 42 40 39 37 34 32 30 30 30 29 28 26
7 4 7 7 5 3 4 6 12 15 3 20 20 7 11 42 35 15 19 23 22 20 17 19 20 22 24 28 32 37 41 45 45 45 44 43 44 46 47 45 44 41 38 35 34 32 31 29 27
7 4 6 6 10 4 10 11 14 18 11 21 1 14 31 36 30 21 21 22 28 32 31 32 31 30 30 31 30 33 37 42 47 47 47 47 49 50 52 52 50 46 44 41 39 37 34 32 31
3 5 10 2 1 5 9 10 16 15 35 6 10 32 30 31 30 29 33 36 33 29 34 41 41 38 35 34 33 32 34 38 44 50 49 50 52 54 56 57 55 53 50 47 45 42 39 39 39
2 6 5 2 2 12 8 11 7 16 10 19 30 37 30 24 20 22 24 30 32 32 36 36 41 46 43 40 35 36 35 36 40 45 51 52 54 56 58 60 60 61 58 55 53 51 49 47 46
5 8 4 8 8 11 12 12 16 27 26 23 31 24 35 39 41 44 46 44 41 38 32 37 40 48 49 45 44 41 43 37 36 40 46 50 54 56 57 59 62 64 64 63 59 58 57 55 52
8 4 7 14 23 23 16 20 15 25 22 7 14 27 44 50 52 54 54 52 51 47 40 30 37 48 55 49 44 44 46 37 34 33 38 45 47 49 51 53 56 60 64 66 65 63 61 61 59
1 8 19 14 27 15 9 7 7 5 16 25 37 46 51 60 50 57 52 51 48 46 41 35 36 43 53 50 48 48 49 43 37 35 31 37 46 46 45 46 49 52 56 58 62 66 66 67 65
6 12 14 7 3 2 7 2 10 3 32 50 48 45 50 37 47 40 38 36 33 32 29 26 32 43 51 53 57 55 57 55 44 41 34 35 41 43 49 53 49 49 51 52 54 56 61 66 69
3 3 6 5 14 5 8 5 10 17 52 59 61 62 50 32 31 29 24 21 17 16 14 14 21 26 36 46 51 52 53 50 45 42 38 39 42 45 50 54 57 60 58 57 58 60 60 64 67
5 5 1 11 8 9 20 9 23 56 44 44 51 51 36 24 28 26 23 17 9 2 7 10 14 22 28 31 31 30 32 33 35 33 31 33 37 41 45 50 55 61 59 57 71 63 69 66 69
6 5 5 6 7 17 26 21 21 39 31 27 32 33 22 26 33 29 23 18 13 10 6 3 2 13 17 20 22 20 20 23 26 27 31 35 38 42 44 46 49 47 47 56 61 55 52 65 78
7 3 13 11 18 12 10 24 26 19 31 36 39 31 30 31 27 27 28 23 19 15 12 9 10 6 6 17 20 18 17 17 19 23 26 30 35 39 43 46 48 51 52 51 48 48 50 53 64
13 14 24 14 10 11 16 31 10 23 21 25 27 30 26 25 26 26 26 25 26 24 24 21 21 17 18 13 7 11 16 17 19 19 21 24 27 31 37 41 43 47 49 50 52 55 54 50 42
9 20 14 17 13 8 12 2 8 15 22 25 31 29 28 26 23 22 26 32 28 27 26 26 26 27 26 26 24 14 5 10 17 23 22 24 25 28 31 35 39 41 43 45 47 52 58 58 43
10 20 18 13 10 8 9 10 15 5 17 22 21 21 19 18 18 22 25 28 34 35 33 29 27 26 24 24 26 31 35 24 31 30 25 23 26 28 28 32 36 39 40 40 42 44 51 56 59
8 11 10 3 5 8 7 10 9 3 3 8 6 11 13 17 22 26 28 31 29 33 40 38 39 38 33 30 32 29 41 41 38 34 32 29 26 27 30 33 33 34 34 36 37 37 40 49 58
12 8 7 7 0 12 13 17 11 11 8 9 10 8 8 9 12 16 18 18 19 16 16 31 39 36 37 33 26 34 35 43 41 36 37 36 35 33 32 29 29 32 31 30 33 34 37 39 45
12 10 5 5 6 10 6 10 20 20 15 13 15 12 4 2 7 13 16 18 20 23 25 18 19 33 40 38 32 17 22 33 43 44 45 41 40 39 37 33 30 30 33 33 34 34 37 38 46
18 20 10 11 7 1 1 13 4 13 18 16 16 15 9 6 7 14 21 25 30 33 31 31 24 16 17 20 26 33 32 33 35 39 40 40 42 42 40 38 37 34 35 34 37 36 38 40 46
11 13 17 11 5 7 10 9 9 21 19 23 22 20 13 4 3 10 16 20 24 27 31 31 31 30 30 24 24 24 27 27 27 28 32 34 35 38 39 40 37 38 37 36 35 35 36 46 45
9 20 6 7 9 11 11 14 15 28 26 26 28 27 19 11 3 10 16 19 22 26 25 25 27 27 26 27 28 27 26 27 28 27 27 28 31 33 34 36 38 37 36 35 35 33 34 41 46
11 10 5 5 5 8 12 12 10 34 38 38 36 30 25 16 6 10 16 20 20 20 21 23 26 26 26 25 24 24 25 28 28 30 30 30 30 31 32 33 34 36 36 34 28 31 34 35 35
15 19 24 9 9 6 4 21 2 23 34 42 37 33 25 15 6 6 13 17 18 19 20 22 23 24 25 25 27 30 33 35 39 40 39 36 34 32 32 34 37 39 39 39 35 29 28 28 24
Wind_Direction_850mb
3 356 347 355 232 52 84 104 286 340 318 283 303 231 248 276 174 42 137 136 130 125 180 192 195 199 199 200 199 196 189 182 182 177 171 165 156 147 159 162 165 168 172 175 176 177 179 178 176
360 299 340 70 134 163 101 264 349 335 323 325 307 240 286 20 57 93 131 131 133 149 178 201 202 202 203 204 205 204 201 195 190 189 183 179 177 168 163 170 175 177 180 182 185 187 189 190 192
334 331 307 79 106 176 116 209 316 331 2 19 6 354 6 354 17 119 131 140 128 140 167 200 210 210 209 209 210 211 210 207 202 199 198 196 190 190 182 178 181 184 187 189 192 194 193 197 202
310 315 47 226 201 135 192 313 323 8 4 11 3 54 12 18 343 155 163 158 143 133 157 192 211 219 218 217 217 219 219 217 215 212 209 208 205 200 199 196 191 192 194 195 196 198 198 202 205
221 50 27 9 167 231 242 284 15 18 24 358 15 340 38 7 2 275 159 149 106 126 145 162 193 215 223 224 224 225 227 226 224 222 219 217 215 211 207 208 207 204 203 201 202 204 204 207 209
99 78 189 257 219 285 301 338 72 25 359 5 12 359 43 10 19 54 90 76 150 147 173 175 187 208 219 226 230 232 232 230 231 228 226 224 222 219 218 217 217 217 214 211 210 210 210 213 213
127 125 216 268 243 254 188 76 39 7 360 21 353 348 357 22 359 331 320 309 284 245 218 222 224 222 226 230 232 234 234 234 234 233 232 228 226 224 223 223 223 223 222 221 220 218 218 219 218
119 91 163 221 160 236 96 45 21 26 21 344 340 19 344 343 349 321 321 311 299 287 271 270 240 237 234 232 234 235 236 236 235 236 235 233 231 228 226 226 226 225 227 226 228 228 225 224 225
119 115 226 237 169 101 53 29 357 329 270 316 212 347 326 326 331 324 312 315 307 295 284 285 265 250 242 241 241 241 242 237 234 233 234 233 232 229 229 229 228 227 228 230 232 232 231 230 229
86 178 213 309 80 68 20 26 321 324 306 318 287 322 326 321 319 315 313 311 307 303 301 285 273 260 246 242 244 244 245 245 243 239 235 234 234 232 232 231 230 230 230 231 232 235 234 232 233
135 227 234 140 114 12 342 350 337 287 293 306 318 325 338 352 354 340 326 325 321 302 289 288 272 263 252 243 242 244 247 249 248 246 242 238 236 235 233 233 231 231 230 231 231 232 233 235 237
259 254 262 324 349 335 313 296 288 269 276 302 317 347 344 339 335 331 326 319 317 305 297 276 268 259 251 243 238 237 245 249 254 254 248 244 241 239 238 236 236 234 235 234 235 236 237 239 241
223 243 297 302 310 294 282 263 260 271 296 359 347 334 337 338 333 327 322 315 311 311 304 293 262 259 247 244 246 252 248 248 251 256 249 245 247 247 242 242 241 239 239 238 239 241 243 243 243
76 304 302 300 291 291 268 260 199 130 7 344 337 333 337 337 335 327 321 318 313 313 308 302 267 248 237 242 254 257 263 251 253 257 246 243 248 247 245 244 243 244 244 246 244 244 248 249 248
321 312 315 309 73 61 282 34 127 203 340 330 330 332 336 343 336 338 333 326 310 302 296 278 266 247 238 232 240 250 253 257 255 254 243 243 245 252 257 257 250 247 249 252 249 248 249 253 253
360 95 308 34 348 19 358 285 307 347 332 329 326 327 336 347 359 359 357 346 329 295 262 244 237 233 225 227 231 234 243 247 248 251 251 251 251 253 253 256 262 260 255 251 251 250 251 252 255
28 258 197 314 61 25 24 299 318 319 321 314 318 327 349 2 13 21 22 23 15 302 218 205 202 213 213 211 210 219 228 232 233 235 243 252 257 258 260 259 256 256 255 255 251 258 254 255 255
202 212 176 241 306 341 311 288 288 298 327 345 346 354 43 29 28 29 32 33 32 44 55 73 197 215 216 212 209 214 224 234 236 241 246 252 258 262 265 265 267 266 263 254 247 246 249 253 259
143 223 274 275 272 299 276 302 293 340 45 24 20 61 53 53 44 36 32 31 35 31 25 27 20 354 256 226 219 217 228 240 247 251 254 257 261 263 263 263 264 263 262 262 258 259 256 253 252
232 271 270 289 269 287 301 305 55 62 69 55 56 55 51 45 39 32 27 23 22 26 31 23 21 24 14 351 282 241 240 249 262 267 268 267 266 267 268 268 265 263 261 257 256 255 255 253 251
218 241 256 268 316 267 320 113 180 84 80 65 59 59 54 49 40 30 29 29 29 24 20 25 27 32 38 30 2 338 263 267 279 275 277 275 274 273 272 273 272 271 268 261 254 250 248 247 243
236 222 241 263 307 295 0 296 206 157 64 66 66 72 59 45 37 33 29 28 29 30 30 15 21 7 11 14 17 2 344 352 331 321 311 306 294 289 279 275 275 277 277 273 265 255 250 246 244
240 167 206 226 237 306 223 258 144 149 114 98 58 82 83 72 53 43 32 19 13 12 12 17 12 15 7 359 335 341 344 330 325 326 325 319 313 300 292 284 281 280 280 277 273 267 258 251 247
135 104 61 57 359 266 230 222 171 190 199 195 178 164 123 69 44 44 51 52 46 30 359 353 356 354 356 349 326 322 325 315 318 326 324 325 319 313 306 300 286 281 282 278 273 268 268 264 260
168 149 278 249 191 256 102 219 275 181 208 212 181 159 161 72 44 37 35 30 22 20 21 9 345 341 339 340 343 343 308 309 325 334 332 328 325 321 317 314 304 288 284 283 276 271 268 268 268
188 208 208 241 210 227 190 239 273 170 171 158 160 174 155 112 51 28 15 7 3 356 1 360 355 353 347 345 332 323 335 339 336 333 334 334 332 331 328 323 314 305 295 290 281 277 275 273 268
171 206 232 265 182 248 230 248 214 167 180 175 193 192 170 169 349 355 356 359 358 353 352 352 350 355 357 0 356 347 343 347 350 340 341 340 340 339 338 337 332 321 313 306 298 291 282 274 272
193 148 130 176 235 234 229 253 245 193 190 194 202 192 181 200 263 341 356 2 357 354 357 356 357 0 1 3 3 2 4 6 7 4 2 359 356 353 350 349 346 340 331 324 316 305 294 288 274
165 200 166 191 218 254 271 253 206 200 192 198 200 189 189 192 231 340 353 354 353 353 358 4 8 9 10 17 18 16 15 18 18 19 17 17 14 11 8 5 3 358 353 345 339 328 314 303 289
199 197 193 213 208 223 326 267 245 205 191 194 188 178 183 187 216 344 353 356 3 10 15 16 17 16 20 22 30 35 39 40 39 34 30 27 28 26 26 28 25 18 16 12 4 355 345 336 320